{"data":{"norad_id":60314,"epoch":"2026-05-24T22:04:57.523872Z","epoch_age_seconds":77892,"freshness":"FRESH","line1":"1 60314U 24133P   26144.92011023 -.00000869  00000+0 -17247-4 0  9991","line2":"2 60314  53.1608 302.8253 0000847  91.4090 268.7008 15.30192543103316","mean_motion":15.30192543,"eccentricity":8.47e-5,"inclination_deg":53.1608,"raan_deg":302.8253,"arg_perigee_deg":91.409,"mean_anomaly_deg":268.7008,"bstar":-1.7247e-5,"rev_number":10331,"period_min":94.105804304655,"perigee_km":474.65685396146,"apogee_km":475.81781557377,"semimajor_km":6853.3743347676,"source":"CELESTRAK","updated_at":"2026-05-25T13:38:19.230609Z"}}